CW3330 Weather Reports


time (UTC)temp
C
wind
direction
speed
KPH
gust
KPH
rain 1hr
cm
rain 24hr
cm
rain mn
cm
humidity
%
barometer
mb
20260902040231 13 204 4.8 12.9 0.00 0.61 0.03 96 1016.8
20260902035233 13 194 4.8 11.3 0.00 0.61 0.03 96 1016.9
20260902034233 13 184 6.4 16.1 0.00 0.61 0.03 96 1017.0
20260902033233 13 179 6.4 12.9 0.00 0.61 0.03 96 1017.1
20260902032724 13 217 4.8 11.3 0.00 0.61 0.03 96 1017.0
20260902031232 13 201 4.8 11.3 0.00 0.61 0.03 96 1017.1
20260902025724 13 202 6.4 16.1 0.00 0.61 0.03 96 1017.1
20260902024233 13 190 8.0 17.7 0.00 0.61 0.03 96 1017.1
20260902023734 13 197 6.4 16.1 0.00 0.61 0.03 96 1017.1
20260902022233 13 171 6.4 12.9 0.00 0.61 0.03 96 1017.1
20260902021231 13 180 4.8 12.9 0.00 0.61 0.03 95 1017.1
20260902020234 13 198 6.4 14.5 0.00 0.61 0.03 95 1017.0
20260902015232 13 197 6.4 12.9 0.00 0.61 0.03 95 1016.9
20260902014231 13 192 6.4 12.9 0.00 0.61 0.03 95 1017.1
20260902013231 13 203 4.8 11.3 0.00 0.61 0.03 95 1017.0
20260902012232 13 213 4.8 11.3 0.00 0.61 0.03 95 1017.0
20260902011231 13 192 4.8 12.9 0.00 0.61 0.03 96 1017.0
20260902005232 13 198 4.8 11.3 0.00 0.61 0.03 96 1016.9
20260902004231 13 211 3.2 8.0 0.00 0.61 0.03 96 1016.9
20260902003232 13 223 3.2 4.8 0.00 0.61 0.03 96 1016.8
20260902002232 13 229 1.6 6.4 0.00 0.61 0.03 95 1016.9
20260902001233 13 240 3.2 4.8 0.00 0.61 0.03 96 1017.0
20260902000233 13 242 3.2 6.4 0.00 0.61 0.03 96 1017.1
20260901235232 13 243 1.6 4.8 0.00 0.61 0.03 96 1016.9
20260901234231 13 244 1.6 6.4 0.03 0.61 0.03 96 1017.2
20260901233231 13 248 0.0 0.0 0.03 0.64 0.03 96 1017.3
20260901232232 13 248 0.0 0.0 0.03 0.64 0.03 96 1017.2
20260901231232 13 248 0.0 0.0 0.03 0.64 0.03 96 1017.3
20260901230231 13 248 0.0 3.2 0.03 0.64 0.03 96 1017.4
20260901225233 13 248 1.6 4.8 0.03 0.61 0.03 96 1017.5
20260901224232 13 250 0.0 4.8 0.00 0.61 0.00 96 1017.5
20260901223231 13 252 0.0 6.4 0.00 0.61 0.00 96 1017.5
20260901222233 13 252 0.0 4.8 0.00 0.61 0.00 96 1017.6
20260901221231 13 254 1.6 4.8 0.00 0.61 0.00 96 1017.6
20260901220246 13 259 0.0 0.0 0.00 0.61 0.00 96 1017.6
20260901215238 13 259 0.0 0.0 0.00 0.61 0.61 96 1017.5
20260901214719 13 259 0.0 0.0 0.00 0.61 0.61 95 1017.5
20260901213234 14 259 0.0 0.0 0.00 0.64 0.61 95 1017.5
20260901212232 14 259 0.0 6.4 0.00 0.64 0.61 95 1017.5
20260901211231 14 254 4.8 8.0 0.00 0.64 0.61 95 1017.4
20260901210230 14 252 1.6 11.3 0.00 0.64 0.61 95 1017.3
20260901205232 14 262 1.6 6.4 0.13 0.61 0.61 95 1017.3
20260901204232 15 271 3.2 11.3 0.13 0.61 0.61 95 1017.4
20260901203719 15 266 3.2 11.3 0.13 0.61 0.61 95 1017.3
20260901202232 15 272 3.2 14.5 0.15 0.61 0.61 95 1017.3
20260901201232 15 269 8.0 17.7 0.15 0.61 0.61 95 1017.3
20260901200231 15 307 6.4 17.7 0.15 0.61 0.61 95 1017.3
20260901195232 15 248 4.8 12.9 0.03 0.51 0.51 95 1017.1
20260901194233 15 238 6.4 12.9 0.15 0.51 0.51 94 1016.9
20260901193231 15 231 4.8 12.9 0.15 0.51 0.51 94 1016.9
20260901192234 15 239 6.4 16.1 0.15 0.51 0.48 94 1016.8
20260901191232 15 277 8.0 20.9 0.15 0.51 0.48 93 1016.8
20260901190230 15 247 4.8 14.5 0.15 0.51 0.48 93 1016.7
20260901185227 15 289 9.7 19.3 0.15 0.36 0.48 91 1016.7
20260901184657 16 236 6.4 12.9 0.00 0.36 0.33 89 1016.5
20260901183223 16 259 6.4 19.3 0.00 0.36 0.33 88 1016.4
20260901182706 16 265 9.7 20.9 0.00 0.36 0.33 88 1016.2
20260901181218 16 309 4.8 20.9 0.00 0.36 0.33 89 1016.0
20260901180213 16 230 6.4 14.5 0.00 0.36 0.33 88 1016.0
20260901175208 16 269 6.4 16.1 0.00 0.36 0.33 86 1015.9
20260901174206 16 266 4.8 14.5 0.00 0.36 0.33 84 1015.9
20260901173204 16 253 9.7 25.7 0.00 0.36 0.33 82 1015.9
20260901172205 17 278 14.5 32.2 0.00 0.36 0.33 82 1015.8
20260901171204 17 248 6.4 14.5 0.00 0.36 0.33 84 1015.8
20260901170204 16 272 6.4 14.5 0.00 0.36 0.33 84 1015.8
20260901165204 16 261 6.4 16.1 0.00 0.36 0.33 85 1015.9
20260901163642 17 288 17.7 32.2 0.00 0.36 0.33 80 1016.1
20260901162645 17 246 11.3 25.7 0.00 0.36 0.33 77 1015.8
20260901161203 18 247 8.0 29.0 0.00 0.36 0.33 77 1015.6
20260901160205 18 284 11.3 32.2 0.00 0.36 0.33 77 1015.6
20260901155701 18 261 12.9 25.7 0.00 0.36 0.33 80 1015.5
20260901154205 17 269 9.7 22.5 0.00 0.36 0.33 83 1015.4
20260901153205 17 261 9.7 20.9 0.00 0.36 0.33 82 1015.5
20260901152643 18 230 9.7 27.4 0.03 0.41 0.33 82 1015.4
20260901151203 18 253 11.3 22.5 0.20 0.43 0.33 79 1015.3
20260901150209 17 262 8.0 19.3 0.20 0.46 0.33 87 1015.2
20260901145640 17 330 9.7 20.9 0.20 0.28 0.33 89 1015.2
20260901144205 16 312 4.8 22.5 0.20 0.28 0.33 91 1015.2
20260901143210 16 245 16.1 30.6 0.20 0.28 0.33 90 1015.3
20260901142204 17 298 11.3 32.2 0.23 0.28 0.30 87 1015.2
20260901141205 19 274 12.9 30.6 0.05 0.28 0.15 79 1015.1
20260901140204 19 280 12.9 27.4 0.05 0.28 0.15 75 1015.0
20260901135653 18 249 9.7 22.5 0.05 0.23 0.15 83 1014.7
20260901134206 18 311 12.9 25.7 0.08 0.25 0.15 85 1014.8
20260901133204 18 277 8.0 20.9 0.08 0.25 0.15 84 1014.8
20260901132205 19 227 16.1 30.6 0.03 0.25 0.08 81 1014.8
20260901131204 18 286 14.5 27.4 0.03 0.25 0.08 83 1014.7
20260901130211 18 199 9.7 22.5 0.03 0.25 0.08 85 1014.6
20260901124204 20 294 12.9 27.4 0.00 0.23 0.05 76 1014.7
20260901123205 20 279 9.7 29.0 0.00 0.23 0.05 73 1014.5
20260901122203 21 269 14.5 32.2 0.00 0.25 0.05 75 1014.4
20260901121203 21 293 16.1 29.0 0.00 0.25 0.05 77 1014.4
20260901120206 21 232 12.9 20.9 0.00 0.25 0.05 77 1014.2
20260901115203 20 255 8.0 20.9 0.00 0.25 0.05 81 1014.4
20260901114203 20 224 12.9 25.7 0.00 0.25 0.05 80 1014.3
20260901113206 20 205 16.1 27.4 0.00 0.28 0.05 79 1014.3
20260901112203 20 269 14.5 25.7 0.00 0.48 0.05 82 1014.3
20260901111203 19 276 16.1 30.6 0.00 0.48 0.05 76 1014.3
20260901110203 20 257 17.7 30.6 0.00 0.48 0.05 75 1014.2
20260901105204 20 271 11.3 30.6 0.00 0.48 0.05 75 1014.1
20260901104715 20 346 11.3 32.2 0.00 0.48 0.05 77 1014.1
20260901103203 19 215 12.9 32.2 0.00 0.48 0.05 81 1014.0
20260901102656 19 255 14.5 30.6 0.00 0.48 0.05 80 1014.0
20260901101203 19 192 17.7 29.0 0.00 0.51 0.05 79 1013.9
20260901100638 19 288 19.3 37.0 0.00 0.51 0.05 77 1013.9
20260901095204 19 285 12.9 29.0 0.00 0.51 0.05 78 1013.9
20260901094205 19 268 16.1 32.2 0.00 0.51 0.05 79 1013.7
20260901093205 19 263 11.3 29.0 0.00 0.51 0.05 81 1013.6
20260901092652 19 236 12.9 30.6 0.00 0.51 0.05 81 1013.6
20260901091204 18 271 14.5 32.2 0.00 0.51 0.05 82 1013.5
20260901090203 18 225 16.1 35.4 0.00 0.51 0.05 81 1013.5
20260901085205 18 213 11.3 29.0 0.00 0.51 0.05 79 1013.5
20260901084649 18 292 17.7 30.6 0.03 0.51 0.05 84 1013.5
20260901083203 18 208 14.5 32.2 0.03 0.51 0.05 86 1013.4
20260901082205 17 249 11.3 22.5 0.03 0.51 0.05 89 1013.3
20260901081203 17 229 11.3 22.5 0.03 0.51 0.05 89 1013.3
20260901075203 17 277 9.7 30.6 0.03 0.48 0.05 89 1013.1
20260901074205 17 255 11.3 27.4 0.00 0.48 0.05 88 1013.1
20260901073219 17 270 8.0 19.3 0.00 0.48 0.05 88 1012.9
20260901072206 17 184 8.0 19.3 0.00 0.48 0.05 90 1012.8
20260901071205 17 218 9.7 20.9 0.00 0.48 0.05 90 1012.8
20260901070203 16 215 6.4 19.3 0.00 0.48 0.05 91 1012.7
20260901065204 16 252 9.7 20.9 0.00 0.48 0.05 93 1012.6
20260901064204 16 269 9.7 17.7 0.00 0.48 0.05 94 1012.6
20260901063203 16 266 6.4 16.1 0.00 0.48 0.05 95 1012.5
20260901062203 15 213 3.2 16.1 0.00 0.48 0.05 96 1012.4
20260901061203 15 254 3.2 14.5 0.00 0.48 0.05 96 1012.3
20260901060207 15 198 4.8 12.9 0.00 0.48 0.05 96 1012.2
20260901055212 14 216 3.2 12.9 0.00 0.48 0.05 96 1012.2
20260901054212 14 203 3.2 8.0 0.00 0.48 0.05 96 1012.2
20260901053206 14 213 4.8 8.0 0.00 0.51 0.05 96 1012.1
20260901052207 14 197 3.2 8.0 0.00 0.61 0.05 96 1012.1
20260901051205 14 202 4.8 8.0 0.00 0.64 0.05 96 1012.0
20260901050205 14 218 3.2 11.3 0.00 0.64 0.05 96 1012.0
20260901045203 14 221 4.8 11.3 0.00 0.64 0.05 96 1011.9
20260901044204 14 221 4.8 8.0 0.00 0.64 0.05 96 1011.8
20260901043205 14 218 1.6 6.4 0.00 0.64 0.05 96 1011.7
20260901042206 14 219 1.6 6.4 0.00 0.64 0.05 96 1011.6
20260901041205 14 220 1.6 6.4 0.00 0.64 0.05 96 1011.6